Truckee-Tahoe, CA

3:51 PM PDT on April 29, 2017 (GMT -0700)
Truckee-Tahoe

Weather History for KTRK - November, 2012

Change the Weather History Date:

Tuesday, November 13, 2012

  Actual Average Record
Temperature  
Mean Temperature 31 °F -  
Max Temperature 48 °F 48 °F 70 °F (1999)
Min Temperature 14 °F 23 °F 4 °F (1985)
Degree Days  
Heating Degree Days 34    
Moisture  
Dew Point 24 °F    
Average Humidity 89    
Maximum Humidity 100    
Minimum Humidity 44    
Precipitation  
Precipitation 0.00 in - - ()
Sea Level Pressure  
Sea Level Pressure 30.29 in    
Wind  
Wind Speed 2 mph (SSE)    
Max Wind Speed 8 mph    
Max Gust Speed -    
Visibility 5 miles    
Events Fog    
Averages and records for this station are not official NWS values.
T = Trace of Precipitation, MM = Missing Value Source: NWS Daily Summary

Daily Weather History Graph

Daily Weather History Graph

Search for Another Location

Airport or City:

Trip Planner

Search our weather history database for the weather conditions in past years. The results will help you decide how hot, cold, wet, or windy it might be!

Date:

Astronomy

Nov. 13, 2012 Rise Set
Actual Time 6:42 AM PST 4:46 PM PST
Civil Twilight 6:13 AM PST 5:15 PM PST
Nautical Twilight 5:41 AM PST 5:47 PM PST
Astronomical Twilight 5:09 AM PST 6:19 PM PST
Moon 6:26 AM PST (11/13) 4:44 PM PST (11/13)
Length of Visible Light 11h 01m
Length of Day
10h 04m
Waning Crescent, 0% of the Moon is Illuminated
Nov 13
Waning Crescent
Nov 13
New
Nov 20
First Quarter
Nov 28
Full
Dec 6
Last Quarter

Hourly Weather History & Observations

Time (PST) Temp. Windchill Dew Point Humidity Pressure Visibility Wind Dir Wind Speed Gust Speed Precip Events Conditions
12:15 AM 21.2 °F - 19.4 °F 93% 30.34 in 0.5 mi Calm Calm - N/A Fog Light Freezing Fog
12:35 AM 21.2 °F - 19.4 °F 93% 30.35 in 0.2 mi Calm Calm - N/A Fog Light Freezing Fog
12:55 AM 17.6 °F - 15.8 °F 93% 30.35 in 0.2 mi Calm Calm - N/A Fog Light Freezing Fog
1:15 AM 19.4 °F - 17.6 °F 93% 30.34 in 0.2 mi Calm Calm - N/A Fog Light Freezing Fog
1:35 AM 19.4 °F - 17.6 °F 93% 30.35 in 0.5 mi Calm Calm - N/A Fog Light Freezing Fog
1:55 AM 17.6 °F 12.3 °F 15.8 °F 93% 30.34 in 0.2 mi SSW 3.5 mph - N/A Fog Light Freezing Fog
2:15 AM 21.2 °F 16.4 °F 19.4 °F 93% 30.34 in 1.5 mi SW 3.5 mph - N/A   Scattered Clouds
2:35 AM 19.4 °F 14.3 °F 17.6 °F 93% 30.34 in 5.0 mi NW 3.5 mph - N/A   Partly Cloudy
2:55 AM 19.4 °F 9.5 °F 17.6 °F 93% 30.33 in 1.5 mi East 8.1 mph - N/A   Scattered Clouds
3:15 AM 15.8 °F 8.6 °F 14.0 °F 93% 30.33 in 0.2 mi NW 4.6 mph - N/A Fog Light Freezing Fog
3:35 AM 17.6 °F 12.3 °F 15.8 °F 93% 30.33 in 0.8 mi ESE 3.5 mph - N/A   Mostly Cloudy
3:55 AM 15.8 °F 10.2 °F 14.0 °F 93% 30.33 in 0.2 mi SW 3.5 mph - N/A Fog Light Freezing Fog
4:15 AM 17.6 °F - 15.8 °F 93% 30.32 in 0.2 mi Calm Calm - N/A Fog Light Freezing Fog
4:35 AM 15.8 °F - 14.0 °F 93% 30.31 in 0.8 mi Calm Calm - N/A   Mostly Cloudy
4:55 AM 17.6 °F 12.3 °F 15.8 °F 93% 30.32 in 0.5 mi North 3.5 mph - N/A Fog Light Freezing Fog
5:15 AM 14.0 °F 5.1 °F 10.4 °F 86% 30.33 in 0.5 mi South 5.8 mph - N/A Fog Light Freezing Fog
5:35 AM 15.8 °F 10.2 °F 14.0 °F 93% 30.33 in 0.2 mi SSW 3.5 mph - N/A Fog Light Freezing Fog
6:45 AM 30.2 °F 26.7 °F 10.4 °F 44% 30.34 in 0.2 mi ESE 3.5 mph - N/A Fog Light Freezing Fog
7:45 AM 17.6 °F - 15.8 °F 93% 30.34 in 10.0 mi Calm Calm - N/A   Mostly Cloudy
8:45 AM 23.0 °F - 21.2 °F 93% 30.33 in 10.0 mi Calm Calm - N/A   Mostly Cloudy
9:45 AM 26.6 °F - 26.6 °F 100% 30.34 in 10.0 mi Calm Calm - N/A   Mostly Cloudy
10:45 AM 32.0 °F - 30.2 °F 93% 30.33 in 10.0 mi Calm Calm - N/A   Mostly Cloudy
11:45 AM 37.4 °F - 28.4 °F 70% 30.29 in 10.0 mi Calm Calm - N/A   Mostly Cloudy
12:50 PM 44.6 °F - 32.0 °F 61% 30.26 in 10.0 mi Calm Calm - N/A   Scattered Clouds
1:45 PM 48.2 °F - 32.0 °F 54% 30.24 in 10.0 mi Calm Calm - N/A   Mostly Cloudy
2:50 PM 46.4 °F 44.3 °F 32.0 °F 57% 30.23 in 10.0 mi South 4.6 mph - N/A   Mostly Cloudy
4:45 PM 41.0 °F 38.0 °F 32.0 °F 70% 30.23 in 10.0 mi South 4.6 mph - N/A   Mostly Cloudy
4:55 PM 39.2 °F 35.9 °F 32.0 °F 75% 30.23 in 10.0 mi SE 4.6 mph - N/A   Clear
5:15 PM 37.4 °F 31.4 °F 32.0 °F 81% 30.23 in 10.0 mi SSE 8.1 mph - N/A   Clear
5:35 PM 35.6 °F 29.9 °F 32.0 °F 87% 30.24 in 10.0 mi SE 6.9 mph - N/A   Clear
5:55 PM 35.6 °F 30.7 °F 32.0 °F 87% 30.24 in 10.0 mi SE 5.8 mph - N/A   Clear
6:15 PM 35.6 °F 32.8 °F 32.0 °F 87% 30.25 in 10.0 mi SSE 3.5 mph - N/A   Clear
6:35 PM 32.0 °F 27.5 °F 30.2 °F 93% 30.25 in 10.0 mi SE 4.6 mph - N/A   Clear
6:55 PM 32.0 °F 28.7 °F 30.2 °F 93% 30.25 in 10.0 mi SSE 3.5 mph - N/A   Clear
7:15 PM 32.0 °F 27.5 °F 30.2 °F 93% 30.25 in 10.0 mi SE 4.6 mph - N/A   Clear
7:35 PM 32.0 °F - 30.2 °F 93% 30.25 in 10.0 mi Calm Calm - N/A   Clear
7:55 PM 32.0 °F - 32.0 °F 100% 30.25 in 10.0 mi Calm Calm - N/A   Clear
8:15 PM 30.2 °F - 28.4 °F 93% 30.24 in 10.0 mi Calm Calm - N/A   Clear
8:35 PM 32.0 °F - 30.2 °F 93% 30.24 in 10.0 mi Calm Calm - N/A   Clear
8:55 PM 32.0 °F - 30.2 °F 93% 30.24 in 10.0 mi Calm Calm - N/A   Clear
9:15 PM 30.2 °F - 28.4 °F 93% 30.24 in 4.0 mi Calm Calm - N/A   Clear
9:35 PM 28.4 °F - 28.4 °F 100% 30.24 in 0.8 mi Calm Calm - N/A   Mist
9:55 PM 28.4 °F - 28.4 °F 100% 30.24 in 0.8 mi Calm Calm - N/A   Mist
10:15 PM 28.4 °F 24.6 °F 28.4 °F 100% 30.25 in 0.2 mi SSE 3.5 mph - N/A Fog Light Freezing Fog
10:35 PM 26.6 °F - 26.6 °F 100% 30.25 in 0.2 mi Calm Calm - N/A Fog Light Freezing Fog
10:55 PM 28.4 °F - 28.4 °F 100% 30.25 in 6.0 mi Calm Calm - N/A   Clear
11:15 PM 28.4 °F - 26.6 °F 93% 30.26 in 0.5 mi Calm Calm - N/A Fog Light Freezing Fog
11:35 PM 24.8 °F 20.5 °F 23.0 °F 93% 30.26 in 0.2 mi South 3.5 mph - N/A Fog Light Freezing Fog
11:55 PM 24.8 °F 20.5 °F 23.0 °F 93% 30.26 in 0.2 mi West 3.5 mph - N/A Fog Light Freezing Fog